TimeCDT,TemperatureF,Dew PointF,Humidity,Sea Level PressureIn,VisibilityMPH,Wind Direction,Wind SpeedMPH,Gust SpeedMPH,PrecipitationIn,Events,Conditions,WindDirDegrees,DateUTC
12:53 AM,73.0,69.1,87,29.95,10.0,SE,4.6,-,N/A,,Mostly Cloudy,130,2013-10-03 05:53:00
1:53 AM,73.0,70.0,90,29.95,10.0,SE,4.6,-,N/A,,Scattered Clouds,140,2013-10-03 06:53:00
2:53 AM,73.0,70.0,90,29.94,10.0,SSE,5.8,-,N/A,,Scattered Clouds,150,2013-10-03 07:53:00
3:53 AM,72.0,70.0,93,29.94,10.0,SE,4.6,-,N/A,,Clear,140,2013-10-03 08:53:00
4:53 AM,72.0,70.0,93,29.94,10.0,SE,4.6,-,N/A,,Clear,140,2013-10-03 09:53:00
5:45 AM,71.6,69.8,94,29.95,10.0,SSE,3.5,-,N/A,,Mostly Cloudy,160,2013-10-03 10:45:00
5:53 AM,72.0,70.0,93,29.95,10.0,SSE,3.5,-,N/A,,Mostly Cloudy,150,2013-10-03 10:53:00
6:16 AM,71.6,69.8,94,29.96,10.0,Calm,Calm,-,N/A,,Scattered Clouds,0,2013-10-03 11:16:00
6:53 AM,71.1,70.0,96,29.96,9.0,Calm,Calm,-,N/A,,Clear,0,2013-10-03 11:53:00
7:53 AM,72.0,70.0,93,29.97,6.0,East,3.5,-,N/A,,Partly Cloudy,100,2013-10-03 12:53:00
8:19 AM,73.4,71.6,94,29.98,7.0,Calm,Calm,-,N/A,,Scattered Clouds,0,2013-10-03 13:19:00
8:32 AM,73.4,71.6,94,29.98,8.0,SSE,4.6,-,N/A,,Mostly Cloudy,150,2013-10-03 13:32:00
8:53 AM,73.9,71.1,91,29.98,10.0,SSE,5.8,-,N/A,,Mostly Cloudy,150,2013-10-03 13:53:00
9:01 AM,73.4,71.6,94,29.99,10.0,SSE,6.9,-,N/A,,Mostly Cloudy,150,2013-10-03 14:01:00
9:53 AM,77.0,72.0,84,29.99,10.0,SSE,6.9,-,N/A,,Mostly Cloudy,150,2013-10-03 14:53:00
10:31 AM,78.8,71.6,78,29.99,10.0,South,9.2,-,N/A,,Overcast,170,2013-10-03 15:31:00
10:53 AM,81.0,73.0,77,29.99,10.0,SE,10.4,-,N/A,,Overcast,140,2013-10-03 15:53:00
11:05 AM,78.8,71.6,78,30.00,10.0,SSE,10.4,-,N/A,,Mostly Cloudy,160,2013-10-03 16:05:00
11:53 AM,79.0,71.1,77,29.99,10.0,SE,4.6,-,N/A,,Mostly Cloudy,140,2013-10-03 16:53:00
12:28 PM,82.4,71.6,70,29.98,10.0,SE,8.1,-,N/A,,Scattered Clouds,140,2013-10-03 17:28:00
12:53 PM,82.9,72.0,69,29.97,10.0,SE,11.5,-,N/A,,Partly Cloudy,130,2013-10-03 17:53:00
1:53 PM,84.0,71.1,65,29.94,10.0,ESE,9.2,-,N/A,,Scattered Clouds,120,2013-10-03 18:53:00
2:53 PM,84.9,71.1,63,29.92,10.0,SSE,8.1,-,N/A,,Clear,160,2013-10-03 19:53:00
3:53 PM,84.0,70.0,63,29.91,10.0,ESE,8.1,-,N/A,,Scattered Clouds,120,2013-10-03 20:53:00
4:53 PM,86.0,70.0,59,29.89,10.0,SE,10.4,-,N/A,,Partly Cloudy,140,2013-10-03 21:53:00
5:53 PM,84.0,69.1,61,29.89,10.0,SE,10.4,-,N/A,,Clear,140,2013-10-03 22:53:00
6:53 PM,82.0,69.1,65,29.89,10.0,SE,9.2,-,N/A,,Clear,130,2013-10-03 23:53:00
7:53 PM,78.1,70.0,76,29.90,10.0,ESE,3.5,-,N/A,,Clear,120,2013-10-04 00:53:00
8:53 PM,79.0,70.0,74,29.91,10.0,SE,5.8,-,N/A,,Clear,130,2013-10-04 01:53:00
9:53 PM,77.0,70.0,79,29.93,10.0,SE,6.9,-,N/A,,Scattered Clouds,130,2013-10-04 02:53:00
11:53 PM,75.0,70.0,84,29.94,10.0,SE,4.6,-,N/A,,Clear,140,2013-10-04 04:53:00